User: anonymous   Login
Location: Caltech
(34.1382°N, 118.1253°W)
Time: 06:19:51
(UTC-08:00)
Language:

JAS-2 - Orbit

View from above orbital plane
View from above orbital plane
View from above satellite
View from above satellite

Ground track
Ground track

The orbit data is extracted from the following two-line orbital elements,

1 24278U 96046B   14351.48724718 -.00000009  00000-0  25762-4 0  5401
2 24278 098.5192 340.0686 0350661 181.8825 349.6767 13.53039414905458
Epoch (UTC): 17 December 2014 11:41:38
Eccentricity: 0.0350661
inclination: 98.5192°
perigee height: 800 km
apogee height: 1322 km
right ascension of ascending node: 340.0686°
argument of perigee: 181.8825°
revolutions per day: 13.53039414
mean anomaly at epoch: 349.6767°
orbit number at epoch: 90545

The dashed part of the orbit path shows where the satellite is in the earth's shadow,  

DLR